Terug naar catalogus

YUXING 3-05

ActiefWetenschapSSO
NORAD 68204·PAYLOAD·🇨🇳 China
Deze satellietnaam is nog niet bevestigd door officiële bronnen.

Gelanceerd Mar 16, 2026 vanaf Jiuquan Satellite Launch Center

Loading…

Volgende Passages (komende 24 uur)

TLE

VersSource: Space-Track

Epoch: Sep 14, 2026, 11:08 UTC

1 68204U 26052G   26257.46416176  .00003259  00000-0  19180-3 0  9993
2 68204  97.5258 331.0844 0010172  10.6598 349.4846 15.12306709 27541

Volg YUXING 3-05 in realtime met AllMySat

Download on the App Store